Location: Unspecified
(48.8582°N, 2.2947°E)
Time: 02:17:24
(UTC+02:00)

ISS - Pass Details

Date: 28 March 2019
Orbit: 408 x 410 km, 51.6° (Epoch: 24 April)

Event Time Altitude Azimuth Distance (km) Brightness Sun altitude
Rises 20:53:05 0° 275° (W) 2,337 1.4 -16.3°
Reaches altitude 10° 20:55:13 10° 280° (W) 1,476 0.2 -16.6°
Maximum altitude 20:58:27 50° 357° (N) 532 -3.1 -17.1°
Enters shadow 20:59:38 32° 55° (NE) 736 -2.8 -17.3°
